Year,Month,Day,Hour,Minute,Value (Times are PST for windspeed in km/hr)
2007,05,09,00,00,4.10
2007,05,09,00,01,7.70
2007,05,09,00,02,6.40
2007,05,09,00,03,6.90
2007,05,09,00,04,7.70
2007,05,09,00,05,8.10
2007,05,09,00,06,5.40
2007,05,09,00,07,4.70
2007,05,09,00,08,6.80
2007,05,09,00,09,4.70
2007,05,09,00,10,4.90
2007,05,09,00,11,6.10
2007,05,09,00,12,6.60
2007,05,09,00,13,4.50
2007,05,09,00,14,4.20
2007,05,09,00,15,3.90
2007,05,09,00,16,5.60
2007,05,09,00,17,6.30
2007,05,09,00,18,6.30
2007,05,09,00,19,7.30
2007,05,09,00,20,8.10
2007,05,09,00,21,6.40
2007,05,09,00,22,8.50
2007,05,09,00,23,7.70
2007,05,09,00,24,5.50
2007,05,09,00,25,7.90
2007,05,09,00,26,8.60
2007,05,09,00,27,6.70
2007,05,09,00,28,8.40
2007,05,09,00,29,7.30
2007,05,09,00,30,8.10
2007,05,09,00,31,7.50
2007,05,09,00,32,6.30
2007,05,09,00,33,3.20
2007,05,09,00,34,4.00
2007,05,09,00,35,4.70
2007,05,09,00,36,6.00
2007,05,09,00,37,4.70
2007,05,09,00,38,4.20
2007,05,09,00,39,6.30
2007,05,09,00,40,7.00
2007,05,09,00,41,4.70
2007,05,09,00,42,7.10
2007,05,09,00,43,6.10
2007,05,09,00,44,9.30
2007,05,09,00,45,8.90
2007,05,09,00,46,7.70
2007,05,09,00,47,6.70
2007,05,09,00,48,6.20
2007,05,09,00,49,5.50
2007,05,09,00,50,5.50
2007,05,09,00,51,6.70
2007,05,09,00,52,6.20
2007,05,09,00,53,6.20
2007,05,09,00,54,7.00
2007,05,09,00,55,7.00
2007,05,09,00,56,7.50
2007,05,09,00,57,6.70
2007,05,09,00,58,7.30
2007,05,09,00,59,6.50
2007,05,09,01,00,6.40
2007,05,09,01,01,6.10
2007,05,09,01,02,5.50
2007,05,09,01,03,4.50
2007,05,09,01,04,7.20
2007,05,09,01,05,5.10
2007,05,09,01,06,4.70
2007,05,09,01,07,8.20
2007,05,09,01,08,6.50
2007,05,09,01,09,6.90
2007,05,09,01,10,7.30
2007,05,09,01,11,6.60
2007,05,09,01,12,5.90
2007,05,09,01,13,5.70
2007,05,09,01,14,7.30
2007,05,09,01,15,6.00
2007,05,09,01,16,5.50
2007,05,09,01,17,4.50
2007,05,09,01,18,6.80
2007,05,09,01,19,5.40
2007,05,09,01,20,6.10
2007,05,09,01,21,6.00
2007,05,09,01,22,6.20
2007,05,09,01,23,5.40
2007,05,09,01,24,6.90
2007,05,09,01,25,4.90
2007,05,09,01,26,5.50
2007,05,09,01,27,4.70
2007,05,09,01,28,5.10
2007,05,09,01,29,5.00
2007,05,09,01,30,5.10
2007,05,09,01,31,6.10
2007,05,09,01,32,6.50
2007,05,09,01,33,7.30
2007,05,09,01,34,8.10
2007,05,09,01,35,7.70
2007,05,09,01,36,7.50
2007,05,09,01,37,7.00
2007,05,09,01,38,5.70
2007,05,09,01,39,7.50
2007,05,09,01,40,7.60
2007,05,09,01,41,7.50
2007,05,09,01,42,6.30
2007,05,09,01,43,6.20
2007,05,09,01,44,7.10
2007,05,09,01,45,6.50
2007,05,09,01,46,5.10
2007,05,09,01,47,5.80
2007,05,09,01,48,6.80
2007,05,09,01,49,6.20
2007,05,09,01,50,6.80
2007,05,09,01,51,5.80
2007,05,09,01,52,7.10
2007,05,09,01,53,5.80
2007,05,09,01,54,4.80
2007,05,09,01,55,4.70
2007,05,09,01,56,4.70
2007,05,09,01,57,4.50
2007,05,09,01,58,5.00
2007,05,09,01,59,5.10
2007,05,09,02,00,5.20
2007,05,09,02,01,4.90
2007,05,09,02,02,6.10
2007,05,09,02,03,5.40
2007,05,09,02,04,5.60
2007,05,09,02,05,6.90
2007,05,09,02,06,4.80
2007,05,09,02,07,4.20
2007,05,09,02,08,4.30
2007,05,09,02,09,3.90
2007,05,09,02,10,4.30
2007,05,09,02,11,4.20
2007,05,09,02,12,4.20
2007,05,09,02,13,4.00
2007,05,09,02,14,5.10
2007,05,09,02,15,3.90
2007,05,09,02,16,4.30
2007,05,09,02,17,4.60
2007,05,09,02,18,4.70
2007,05,09,02,19,5.00
2007,05,09,02,20,4.70
2007,05,09,02,21,4.50
2007,05,09,02,22,4.30
2007,05,09,02,23,4.40
2007,05,09,02,24,3.20
2007,05,09,02,25,3.40
2007,05,09,02,26,3.60
2007,05,09,02,27,4.10
2007,05,09,02,28,4.90
2007,05,09,02,29,4.60
2007,05,09,02,30,4.10
2007,05,09,02,31,3.70
2007,05,09,02,32,3.10
2007,05,09,02,33,1.90
2007,05,09,02,34,3.00
2007,05,09,02,35,3.30
2007,05,09,02,36,3.30
2007,05,09,02,37,3.50
2007,05,09,02,38,3.60
2007,05,09,02,39,2.60
2007,05,09,02,40,2.60
2007,05,09,02,41,4.90
2007,05,09,02,42,5.10
2007,05,09,02,43,5.50
2007,05,09,02,44,6.10
2007,05,09,02,45,6.30
2007,05,09,02,46,5.30
2007,05,09,02,47,5.50
2007,05,09,02,48,5.10
2007,05,09,02,49,4.70
2007,05,09,02,50,3.20
2007,05,09,02,51,3.40
2007,05,09,02,52,2.50
2007,05,09,02,53,1.80
2007,05,09,02,54,0.10
2007,05,09,02,55,0.20
2007,05,09,02,56,0.20
2007,05,09,02,57,0.50
2007,05,09,02,58,2.00
2007,05,09,02,59,2.30
2007,05,09,03,00,2.30
2007,05,09,03,01,1.70
2007,05,09,03,02,2.30
2007,05,09,03,03,1.50
2007,05,09,03,04,1.10
2007,05,09,03,05,1.00
2007,05,09,03,06,0.40
2007,05,09,03,07,1.00
2007,05,09,03,08,1.40
2007,05,09,03,09,1.00
2007,05,09,03,10,1.00
2007,05,09,03,11,1.30
2007,05,09,03,12,2.10
2007,05,09,03,13,2.30
2007,05,09,03,14,2.00
2007,05,09,03,15,1.70
2007,05,09,03,16,1.70
2007,05,09,03,17,1.40
2007,05,09,03,18,0.90
2007,05,09,03,19,0.20
2007,05,09,03,20,0.50
2007,05,09,03,21,1.30
2007,05,09,03,22,1.40
2007,05,09,03,23,1.80
2007,05,09,03,24,1.70
2007,05,09,03,25,1.80
2007,05,09,03,26,1.70
2007,05,09,03,27,1.60
2007,05,09,03,28,1.10
2007,05,09,03,29,1.80
2007,05,09,03,30,1.30
2007,05,09,03,31,1.50
2007,05,09,03,32,1.30
2007,05,09,03,33,1.80
2007,05,09,03,34,0.90
2007,05,09,03,35,0.40
2007,05,09,03,36,0.00
2007,05,09,03,37,1.10
2007,05,09,03,38,1.70
2007,05,09,03,39,0.50
2007,05,09,03,40,0.60
2007,05,09,03,41,1.30
2007,05,09,03,42,2.20
2007,05,09,03,43,1.80
2007,05,09,03,44,1.30
2007,05,09,03,45,0.30
2007,05,09,03,46,0.00
2007,05,09,03,47,0.00
2007,05,09,03,48,0.00
2007,05,09,03,49,0.00
2007,05,09,03,50,0.00
2007,05,09,03,51,0.00
2007,05,09,03,52,0.00
2007,05,09,03,53,0.00
2007,05,09,03,54,0.00
2007,05,09,03,55,0.00
2007,05,09,03,56,0.00
2007,05,09,03,57,0.00
2007,05,09,03,58,0.00
2007,05,09,03,59,0.00
2007,05,09,04,00,0.00
2007,05,09,04,01,0.00
2007,05,09,04,02,0.00
2007,05,09,04,03,0.00
2007,05,09,04,04,0.00
2007,05,09,04,05,0.20
2007,05,09,04,06,0.00
2007,05,09,04,07,0.00
2007,05,09,04,08,0.00
2007,05,09,04,09,0.00
2007,05,09,04,10,0.00
2007,05,09,04,11,0.00
2007,05,09,04,12,0.00
2007,05,09,04,13,0.00
2007,05,09,04,14,0.00
2007,05,09,04,15,0.00
2007,05,09,04,16,0.00
2007,05,09,04,17,0.00
2007,05,09,04,18,0.00
2007,05,09,04,19,0.00
2007,05,09,04,20,0.00
2007,05,09,04,21,0.00
2007,05,09,04,22,0.00
2007,05,09,04,23,0.00
2007,05,09,04,24,0.00
2007,05,09,04,25,0.00
2007,05,09,04,26,0.00
2007,05,09,04,27,0.00
2007,05,09,04,28,0.00
2007,05,09,04,29,0.00
2007,05,09,04,30,0.00
2007,05,09,04,31,0.00
2007,05,09,04,32,0.00
2007,05,09,04,33,0.00
2007,05,09,04,34,0.00
2007,05,09,04,35,0.00
2007,05,09,04,36,0.00
2007,05,09,04,37,0.00
2007,05,09,04,38,0.00
2007,05,09,04,39,0.00
2007,05,09,04,40,0.00
2007,05,09,04,41,0.00
2007,05,09,04,42,0.00
2007,05,09,04,43,0.00
2007,05,09,04,44,0.00
2007,05,09,04,45,0.00
2007,05,09,04,46,0.00
2007,05,09,04,47,0.00
2007,05,09,04,48,0.00
2007,05,09,04,49,0.00
2007,05,09,04,50,0.00
2007,05,09,04,51,0.00
2007,05,09,04,52,0.00
2007,05,09,04,53,0.00
2007,05,09,04,54,0.00
2007,05,09,04,55,0.00
2007,05,09,04,56,0.00
2007,05,09,04,57,0.00
2007,05,09,04,58,0.00
2007,05,09,04,59,0.00
2007,05,09,05,00,0.00
2007,05,09,05,01,0.00
2007,05,09,05,02,0.00
2007,05,09,05,03,0.00
2007,05,09,05,04,0.00
2007,05,09,05,05,0.00
2007,05,09,05,06,0.00
2007,05,09,05,07,0.00
2007,05,09,05,08,0.00
2007,05,09,05,09,0.00
2007,05,09,05,10,0.00
2007,05,09,05,11,0.00
2007,05,09,05,12,0.10
2007,05,09,05,13,0.00
2007,05,09,05,14,0.00
2007,05,09,05,15,0.00
2007,05,09,05,16,0.00
2007,05,09,05,17,0.10
2007,05,09,05,18,0.20
2007,05,09,05,19,0.00
2007,05,09,05,20,0.20
2007,05,09,05,21,1.00
2007,05,09,05,22,0.00
2007,05,09,05,23,0.10
2007,05,09,05,24,0.00
2007,05,09,05,25,0.00
2007,05,09,05,26,0.00
2007,05,09,05,27,0.00
2007,05,09,05,28,0.00
2007,05,09,05,29,0.00
2007,05,09,05,30,0.00
2007,05,09,05,31,0.00
2007,05,09,05,32,0.00
2007,05,09,05,33,0.00
2007,05,09,05,34,0.00
2007,05,09,05,35,0.00
2007,05,09,05,36,0.00
2007,05,09,05,37,0.00
2007,05,09,05,38,0.00
2007,05,09,05,39,0.00
2007,05,09,05,40,0.00
2007,05,09,05,41,0.00
2007,05,09,05,42,0.00
2007,05,09,05,43,0.00
2007,05,09,05,44,0.00
2007,05,09,05,45,0.00
2007,05,09,05,46,0.00
2007,05,09,05,47,0.00
2007,05,09,05,48,0.00
2007,05,09,05,49,0.00
2007,05,09,05,50,0.00
2007,05,09,05,51,0.00
2007,05,09,05,52,0.00
2007,05,09,05,53,0.00
2007,05,09,05,54,0.00
2007,05,09,05,55,0.00
2007,05,09,05,56,0.00
2007,05,09,05,57,0.00
2007,05,09,05,58,0.00
2007,05,09,05,59,0.00
2007,05,09,06,00,0.00
2007,05,09,06,01,0.00
2007,05,09,06,02,0.00
2007,05,09,06,03,0.00
2007,05,09,06,04,0.00
2007,05,09,06,05,0.00
2007,05,09,06,06,0.00
2007,05,09,06,07,0.00
2007,05,09,06,08,0.00
2007,05,09,06,09,0.00
2007,05,09,06,10,0.00
2007,05,09,06,11,0.00
2007,05,09,06,12,0.00
2007,05,09,06,13,0.00
2007,05,09,06,14,0.00
2007,05,09,06,15,0.00
2007,05,09,06,16,0.00
2007,05,09,06,17,0.00
2007,05,09,06,18,0.00
2007,05,09,06,19,0.00
2007,05,09,06,20,0.00
2007,05,09,06,21,0.00
2007,05,09,06,22,0.00
2007,05,09,06,23,0.00
2007,05,09,06,24,0.00
2007,05,09,06,25,0.00
2007,05,09,06,26,0.00
2007,05,09,06,27,0.00
2007,05,09,06,28,0.00
2007,05,09,06,29,0.00
2007,05,09,06,30,0.00
2007,05,09,06,31,0.00
2007,05,09,06,32,0.00
2007,05,09,06,33,0.00
2007,05,09,06,34,0.00
2007,05,09,06,35,0.00
2007,05,09,06,36,0.00
2007,05,09,06,37,0.00
2007,05,09,06,38,0.00
2007,05,09,06,39,0.00
2007,05,09,06,40,0.00
2007,05,09,06,41,0.20
2007,05,09,06,42,0.00
2007,05,09,06,43,0.50
2007,05,09,06,44,0.60
2007,05,09,06,45,0.60
2007,05,09,06,46,0.00
2007,05,09,06,47,0.60
2007,05,09,06,48,1.90
2007,05,09,06,49,0.10
2007,05,09,06,50,0.70
2007,05,09,06,51,0.20
2007,05,09,06,52,1.40
2007,05,09,06,53,2.30
2007,05,09,06,54,1.10
2007,05,09,06,55,1.40
2007,05,09,06,56,0.50
2007,05,09,06,57,0.60
2007,05,09,06,58,0.60
2007,05,09,06,59,0.60
2007,05,09,07,00,0.00
2007,05,09,07,01,0.00
2007,05,09,07,02,0.20
2007,05,09,07,03,1.20
2007,05,09,07,04,1.60
2007,05,09,07,05,1.80
2007,05,09,07,06,1.80
2007,05,09,07,07,0.90
2007,05,09,07,08,2.60
2007,05,09,07,09,3.50
2007,05,09,07,10,3.10
2007,05,09,07,11,2.40
2007,05,09,07,12,0.70
2007,05,09,07,13,1.00
2007,05,09,07,14,2.50
2007,05,09,07,15,1.00
2007,05,09,07,16,1.20
2007,05,09,07,17,3.20
2007,05,09,07,18,3.30
2007,05,09,07,19,1.80
2007,05,09,07,20,3.70
2007,05,09,07,21,3.60
2007,05,09,07,22,1.50
2007,05,09,07,23,1.10
2007,05,09,07,24,2.00
2007,05,09,07,25,3.30
2007,05,09,07,26,1.60
2007,05,09,07,27,4.20
2007,05,09,07,28,3.50
2007,05,09,07,29,5.40
2007,05,09,07,30,2.10
2007,05,09,07,31,4.50
2007,05,09,07,32,4.50
2007,05,09,07,33,4.50
2007,05,09,07,34,3.50
2007,05,09,07,35,5.50
2007,05,09,07,36,4.40
2007,05,09,07,37,1.70
2007,05,09,07,38,5.10
2007,05,09,07,39,2.40
2007,05,09,07,40,0.70
2007,05,09,07,41,3.30
2007,05,09,07,42,6.50
2007,05,09,07,43,7.00
2007,05,09,07,44,6.50
2007,05,09,07,45,6.80
2007,05,09,07,46,7.30
2007,05,09,07,47,7.60
2007,05,09,07,48,6.90
2007,05,09,07,49,7.20
2007,05,09,07,50,6.60
2007,05,09,07,51,6.90
2007,05,09,07,52,2.90
2007,05,09,07,53,5.20
2007,05,09,07,54,6.70
2007,05,09,07,55,5.10
2007,05,09,07,56,6.90
2007,05,09,07,57,6.40
2007,05,09,07,58,5.40
2007,05,09,07,59,4.90
2007,05,09,08,00,4.90
2007,05,09,08,01,7.20
2007,05,09,08,02,5.90
2007,05,09,08,03,4.90
2007,05,09,08,04,5.00
2007,05,09,08,05,4.70
2007,05,09,08,06,6.00
2007,05,09,08,07,7.40
2007,05,09,08,08,6.40
2007,05,09,08,09,5.80
2007,05,09,08,10,6.40
2007,05,09,08,11,5.50
2007,05,09,08,12,8.40
2007,05,09,08,13,6.50
2007,05,09,08,14,5.90
2007,05,09,08,15,7.30
2007,05,09,08,16,7.90
2007,05,09,08,17,3.90
2007,05,09,08,18,6.10
2007,05,09,08,19,6.80
2007,05,09,08,20,6.70
2007,05,09,08,21,7.50
2007,05,09,08,22,2.30
2007,05,09,08,23,4.30
2007,05,09,08,24,5.00
2007,05,09,08,25,7.60
2007,05,09,08,26,5.90
2007,05,09,08,27,5.10
2007,05,09,08,28,6.30
2007,05,09,08,29,6.80
2007,05,09,08,30,7.30
2007,05,09,08,31,7.20
2007,05,09,08,32,6.90
2007,05,09,08,33,6.50
2007,05,09,08,34,7.90
2007,05,09,08,35,6.70
2007,05,09,08,36,5.50
2007,05,09,08,37,6.70
2007,05,09,08,38,6.00
2007,05,09,08,39,6.20
2007,05,09,08,40,4.00
2007,05,09,08,41,3.60
2007,05,09,08,42,4.00
2007,05,09,08,43,4.60
2007,05,09,08,44,3.70
2007,05,09,08,45,8.70
2007,05,09,08,46,8.90
2007,05,09,08,47,6.50
2007,05,09,08,48,3.00
2007,05,09,08,49,5.50
2007,05,09,08,50,6.00
2007,05,09,08,51,3.40
2007,05,09,08,52,7.50
2007,05,09,08,53,5.10
2007,05,09,08,54,12.20
2007,05,09,08,55,9.30
2007,05,09,08,56,6.20
2007,05,09,08,57,6.80
2007,05,09,08,58,8.30
2007,05,09,08,59,7.20
2007,05,09,09,00,14.60
2007,05,09,09,01,9.10
2007,05,09,09,02,10.00
2007,05,09,09,03,11.40
2007,05,09,09,04,5.20
2007,05,09,09,05,5.70
2007,05,09,09,06,7.00
2007,05,09,09,07,5.70
2007,05,09,09,08,8.00
2007,05,09,09,09,7.10
2007,05,09,09,10,6.90
2007,05,09,09,11,9.10
2007,05,09,09,12,8.10
2007,05,09,09,13,9.30
2007,05,09,09,14,9.00
2007,05,09,09,15,10.40
2007,05,09,09,16,9.10
2007,05,09,09,17,5.30
2007,05,09,09,18,10.20
2007,05,09,09,19,8.10
2007,05,09,09,20,6.30
2007,05,09,09,21,5.40
2007,05,09,09,22,7.20
2007,05,09,09,23,6.40
2007,05,09,09,24,8.20
2007,05,09,09,25,10.50
2007,05,09,09,26,5.90
2007,05,09,09,27,8.10
2007,05,09,09,28,7.80
2007,05,09,09,29,6.40
2007,05,09,09,30,8.30
2007,05,09,09,31,6.50
2007,05,09,09,32,5.70
2007,05,09,09,33,7.80
2007,05,09,09,34,8.80
2007,05,09,09,35,8.30
2007,05,09,09,36,11.50
2007,05,09,09,37,6.80
2007,05,09,09,38,6.80
2007,05,09,09,39,7.40
2007,05,09,09,40,8.70
2007,05,09,09,41,5.70
2007,05,09,09,42,4.70
2007,05,09,09,43,7.70
2007,05,09,09,44,5.80
2007,05,09,09,45,8.10
2007,05,09,09,46,11.60
2007,05,09,09,47,6.40
2007,05,09,09,48,9.80
2007,05,09,09,49,11.20
2007,05,09,09,50,10.50
2007,05,09,09,51,11.20
2007,05,09,09,52,9.90
2007,05,09,09,53,11.70
2007,05,09,09,54,11.00
2007,05,09,09,55,7.50
2007,05,09,09,56,9.70
2007,05,09,09,57,8.30
2007,05,09,09,58,11.90
2007,05,09,09,59,10.20
2007,05,09,10,00,9.20
2007,05,09,10,01,8.50
2007,05,09,10,02,6.10
2007,05,09,10,03,5.60
2007,05,09,10,04,7.90
2007,05,09,10,05,10.10
2007,05,09,10,06,7.50
2007,05,09,10,07,6.30
2007,05,09,10,08,6.00
2007,05,09,10,09,8.10
2007,05,09,10,10,7.90
2007,05,09,10,11,10.10
2007,05,09,10,12,8.70
2007,05,09,10,13,10.10
2007,05,09,10,14,6.90
2007,05,09,10,15,6.40
2007,05,09,10,16,6.00
2007,05,09,10,17,10.10
2007,05,09,10,18,8.80
2007,05,09,10,19,9.30
2007,05,09,10,20,8.40
2007,05,09,10,21,10.00
2007,05,09,10,22,10.00
2007,05,09,10,23,8.40
2007,05,09,10,24,5.60
2007,05,09,10,25,4.60
2007,05,09,10,26,3.50
2007,05,09,10,27,6.80
2007,05,09,10,28,10.10
2007,05,09,10,29,6.60
2007,05,09,10,30,8.90
2007,05,09,10,31,5.30
2007,05,09,10,32,6.80
2007,05,09,10,33,7.60
2007,05,09,10,34,9.70
2007,05,09,10,35,10.30
2007,05,09,10,36,4.50
2007,05,09,10,37,5.80
2007,05,09,10,38,5.50
2007,05,09,10,39,6.70
2007,05,09,10,40,5.90
2007,05,09,10,41,9.10
2007,05,09,10,42,6.20
2007,05,09,10,43,9.30
2007,05,09,10,44,5.80
2007,05,09,10,45,6.20
2007,05,09,10,46,6.90
2007,05,09,10,47,10.90
2007,05,09,10,48,8.80
2007,05,09,10,49,9.40
2007,05,09,10,50,8.60
2007,05,09,10,51,8.50
2007,05,09,10,52,11.70
2007,05,09,10,53,9.00
2007,05,09,10,54,8.90
2007,05,09,10,55,10.10
2007,05,09,10,56,8.60
2007,05,09,10,57,9.80
2007,05,09,10,58,9.60
2007,05,09,10,59,7.30
2007,05,09,11,00,10.30
2007,05,09,11,01,7.20
2007,05,09,11,02,6.50
2007,05,09,11,03,5.90
2007,05,09,11,04,7.30
2007,05,09,11,05,6.00
2007,05,09,11,06,6.80
2007,05,09,11,07,9.90
2007,05,09,11,08,11.50
2007,05,09,11,09,8.90
2007,05,09,11,10,7.70
2007,05,09,11,11,10.70
2007,05,09,11,12,10.40
2007,05,09,11,13,8.80
2007,05,09,11,14,8.90
2007,05,09,11,15,10.40
2007,05,09,11,16,8.40
2007,05,09,11,17,12.30
2007,05,09,11,18,9.70
2007,05,09,11,19,9.60
2007,05,09,11,20,8.90
2007,05,09,11,21,6.10
2007,05,09,11,22,9.90
2007,05,09,11,23,9.10
2007,05,09,11,24,8.90
2007,05,09,11,25,4.40
2007,05,09,11,26,5.60
2007,05,09,11,27,7.00
2007,05,09,11,28,8.60
2007,05,09,11,29,10.10
2007,05,09,11,30,6.10
2007,05,09,11,31,8.60
2007,05,09,11,32,7.20
2007,05,09,11,33,7.40
2007,05,09,11,34,10.00
2007,05,09,11,35,4.90
2007,05,09,11,36,6.20
2007,05,09,11,37,5.20
2007,05,09,11,38,6.60
2007,05,09,11,39,5.60
2007,05,09,11,40,6.30
2007,05,09,11,41,7.20
2007,05,09,11,42,6.60
2007,05,09,11,43,6.50
2007,05,09,11,44,7.20
2007,05,09,11,45,7.00
2007,05,09,11,46,7.90
2007,05,09,11,47,8.40
2007,05,09,11,48,7.20
2007,05,09,11,49,10.70
2007,05,09,11,50,9.10
2007,05,09,11,51,9.20
2007,05,09,11,52,10.10
2007,05,09,11,53,7.20
2007,05,09,11,54,8.60
2007,05,09,11,55,8.40
2007,05,09,11,56,8.10
2007,05,09,11,57,9.10
2007,05,09,11,58,7.30
2007,05,09,11,59,7.30
2007,05,09,12,00,6.30
2007,05,09,12,01,8.00
2007,05,09,12,02,8.90
2007,05,09,12,03,7.60
2007,05,09,12,04,8.10
2007,05,09,12,05,8.90
2007,05,09,12,06,7.60
2007,05,09,12,07,9.30
2007,05,09,12,08,8.20
2007,05,09,12,09,8.70
2007,05,09,12,10,7.20
2007,05,09,12,11,8.10
2007,05,09,12,12,9.50
2007,05,09,12,13,8.20
2007,05,09,12,14,9.70
2007,05,09,12,15,6.00
2007,05,09,12,16,9.20
2007,05,09,12,17,9.60
2007,05,09,12,18,7.60
2007,05,09,12,19,10.60
2007,05,09,12,20,8.80
2007,05,09,12,21,7.80
2007,05,09,12,22,8.70
2007,05,09,12,23,4.70
2007,05,09,12,24,5.10
2007,05,09,12,25,8.30
2007,05,09,12,26,10.20
2007,05,09,12,27,8.00
2007,05,09,12,28,5.40
2007,05,09,12,30,5.90
2007,05,09,12,31,9.20
2007,05,09,12,32,8.80
2007,05,09,12,33,9.90
2007,05,09,12,34,8.00
2007,05,09,12,35,8.30
2007,05,09,12,36,9.90
2007,05,09,12,37,8.20
2007,05,09,12,38,7.00
2007,05,09,12,39,5.60
2007,05,09,12,40,8.30
2007,05,09,12,41,9.50
2007,05,09,12,42,10.20
2007,05,09,12,43,9.30
2007,05,09,12,44,10.60
2007,05,09,12,45,9.80
2007,05,09,12,46,6.30
2007,05,09,12,47,7.20
2007,05,09,12,48,8.40
2007,05,09,12,49,5.20
2007,05,09,12,50,8.60
2007,05,09,12,51,3.60
2007,05,09,12,52,5.00
2007,05,09,12,53,7.00
2007,05,09,12,54,6.60
2007,05,09,12,55,8.40
2007,05,09,12,56,7.90
2007,05,09,12,57,7.70
2007,05,09,12,58,8.80
2007,05,09,12,59,8.80
2007,05,09,13,00,7.70
2007,05,09,13,01,8.80
2007,05,09,13,02,5.80
2007,05,09,13,03,7.30
2007,05,09,13,04,6.00
2007,05,09,13,05,4.00
2007,05,09,13,06,6.50
2007,05,09,13,07,4.80
2007,05,09,13,08,7.50
2007,05,09,13,09,7.40
2007,05,09,13,10,6.70
2007,05,09,13,11,7.50
2007,05,09,13,12,6.80
2007,05,09,13,13,7.10
2007,05,09,13,14,6.90
2007,05,09,13,15,2.80
2007,05,09,13,16,7.40
2007,05,09,13,17,4.70
2007,05,09,13,18,8.40
2007,05,09,13,19,6.00
2007,05,09,13,20,4.10
2007,05,09,13,21,4.00
2007,05,09,13,22,4.50
2007,05,09,13,23,5.80
2007,05,09,13,24,4.40
2007,05,09,13,25,4.80
2007,05,09,13,26,5.90
2007,05,09,13,27,6.40
2007,05,09,13,28,8.40
2007,05,09,13,29,6.90
2007,05,09,13,30,6.10
2007,05,09,13,31,6.40
2007,05,09,13,32,5.60
2007,05,09,13,33,8.20
2007,05,09,13,34,8.10
2007,05,09,13,35,9.80
2007,05,09,13,36,8.60
2007,05,09,13,37,4.30
2007,05,09,13,38,6.30
2007,05,09,13,39,6.40
2007,05,09,13,40,6.50
2007,05,09,13,41,4.40
2007,05,09,13,42,5.40
2007,05,09,13,43,4.70
2007,05,09,13,44,8.70
2007,05,09,13,45,6.40
2007,05,09,13,46,5.30
2007,05,09,13,47,9.80
2007,05,09,13,48,7.20
2007,05,09,13,49,8.50
2007,05,09,13,50,4.90
2007,05,09,13,51,5.90
2007,05,09,13,52,8.00
2007,05,09,13,53,9.50
2007,05,09,13,54,9.20
2007,05,09,13,55,7.50
2007,05,09,13,56,6.30
2007,05,09,13,57,6.50
2007,05,09,13,58,6.80
2007,05,09,13,59,7.70
2007,05,09,14,00,5.80
2007,05,09,14,01,7.50
2007,05,09,14,02,7.30
2007,05,09,14,03,7.00
2007,05,09,14,04,4.00
2007,05,09,14,05,3.20
2007,05,09,14,06,5.60
2007,05,09,14,07,4.00
2007,05,09,14,08,5.50
2007,05,09,14,09,7.70
2007,05,09,14,10,8.20
2007,05,09,14,11,7.40
2007,05,09,14,12,4.60
2007,05,09,14,13,7.80
2007,05,09,14,14,1.90
2007,05,09,14,15,5.10
2007,05,09,14,16,4.40
2007,05,09,14,17,3.80
2007,05,09,14,18,4.60
2007,05,09,14,19,4.70
2007,05,09,14,20,6.70
2007,05,09,14,21,4.90
2007,05,09,14,22,7.30
2007,05,09,14,23,5.10
2007,05,09,14,24,6.30
2007,05,09,14,25,7.30
2007,05,09,14,26,7.10
2007,05,09,14,27,7.10
2007,05,09,14,28,8.20
2007,05,09,14,29,3.90
2007,05,09,14,30,3.30
2007,05,09,14,31,8.10
2007,05,09,14,32,6.70
2007,05,09,14,33,6.50
2007,05,09,14,34,5.00
2007,05,09,14,35,5.30
2007,05,09,14,36,4.60
2007,05,09,14,37,9.20
2007,05,09,14,38,5.40
2007,05,09,14,39,8.30
2007,05,09,14,40,8.70
2007,05,09,14,41,2.50
2007,05,09,14,42,6.70
2007,05,09,14,43,8.50
2007,05,09,14,44,6.30
2007,05,09,14,45,7.70
2007,05,09,14,46,8.90
2007,05,09,14,47,4.40
2007,05,09,14,48,6.10
2007,05,09,14,49,7.20
2007,05,09,14,50,7.80
2007,05,09,14,51,6.50
2007,05,09,14,52,6.40
2007,05,09,14,53,8.60
2007,05,09,14,54,3.40
2007,05,09,14,55,6.50
2007,05,09,14,56,5.70
2007,05,09,14,57,4.00
2007,05,09,14,58,6.70
2007,05,09,14,59,4.70
2007,05,09,15,00,7.60
2007,05,09,15,01,8.90
2007,05,09,15,02,7.20
2007,05,09,15,03,6.40
2007,05,09,15,04,6.60
2007,05,09,15,05,4.80
2007,05,09,15,06,5.20
2007,05,09,15,07,7.60
2007,05,09,15,08,6.80
2007,05,09,15,09,6.00
2007,05,09,15,10,7.10
2007,05,09,15,11,5.90
2007,05,09,15,12,5.30
2007,05,09,15,13,6.80
2007,05,09,15,14,6.40
2007,05,09,15,15,6.50
2007,05,09,15,16,7.10
2007,05,09,15,17,3.60
2007,05,09,15,18,7.20
2007,05,09,15,19,5.50
2007,05,09,15,20,2.90
2007,05,09,15,21,4.80
2007,05,09,15,22,4.00
2007,05,09,15,23,5.00
2007,05,09,15,24,7.40
2007,05,09,15,25,4.30
2007,05,09,15,26,5.60
2007,05,09,15,27,6.10
2007,05,09,15,28,4.10
2007,05,09,15,29,4.00
2007,05,09,15,30,3.30
2007,05,09,15,31,3.10
2007,05,09,15,32,2.60
2007,05,09,15,33,4.20
2007,05,09,15,34,2.60
2007,05,09,15,35,2.00
2007,05,09,15,36,1.40
2007,05,09,15,37,4.50
2007,05,09,15,38,3.30
2007,05,09,15,39,3.50
2007,05,09,15,40,4.80
2007,05,09,15,41,3.50
2007,05,09,15,42,1.10
2007,05,09,15,43,2.40
2007,05,09,15,44,1.50
2007,05,09,15,45,2.70
2007,05,09,15,46,2.60
2007,05,09,15,47,5.20
2007,05,09,15,48,3.40
2007,05,09,15,49,3.40
2007,05,09,15,50,3.00
2007,05,09,15,51,2.40
2007,05,09,15,52,3.80
2007,05,09,15,53,5.70
2007,05,09,15,54,6.30
2007,05,09,15,55,5.50
2007,05,09,15,56,0.60
2007,05,09,15,57,2.30
2007,05,09,15,58,2.80
2007,05,09,15,59,3.60
2007,05,09,16,00,4.50
2007,05,09,16,01,3.90
2007,05,09,16,02,5.10
2007,05,09,16,03,6.30
2007,05,09,16,04,3.60
2007,05,09,16,05,4.60
2007,05,09,16,06,4.20
2007,05,09,16,07,2.90
2007,05,09,16,08,5.90
2007,05,09,16,09,3.90
2007,05,09,16,10,6.40
2007,05,09,16,11,6.80
2007,05,09,16,12,6.30
2007,05,09,16,13,5.10
2007,05,09,16,14,4.60
2007,05,09,16,15,4.70
2007,05,09,16,16,3.90
2007,05,09,16,17,3.30
2007,05,09,16,18,5.30
2007,05,09,16,19,4.30
2007,05,09,16,20,3.80
2007,05,09,16,21,2.70
2007,05,09,16,22,2.60
2007,05,09,16,23,4.20
2007,05,09,16,24,1.70
2007,05,09,16,25,5.60
2007,05,09,16,26,4.30
2007,05,09,16,27,5.80
2007,05,09,16,28,3.20
2007,05,09,16,29,4.20
2007,05,09,16,30,4.90
2007,05,09,16,31,3.80
2007,05,09,16,32,2.80
2007,05,09,16,33,3.00
2007,05,09,16,34,4.10
2007,05,09,16,35,4.30
2007,05,09,16,36,3.90
2007,05,09,16,37,4.80
2007,05,09,16,38,3.20
2007,05,09,16,39,3.90
2007,05,09,16,40,4.20
2007,05,09,16,41,5.10
2007,05,09,16,42,3.90
2007,05,09,16,43,5.00
2007,05,09,16,44,2.60
2007,05,09,16,45,4.00
2007,05,09,16,46,6.40
2007,05,09,16,47,5.70
2007,05,09,16,48,7.60
2007,05,09,16,49,4.90
2007,05,09,16,50,2.70
2007,05,09,16,51,6.70
2007,05,09,16,52,3.70
2007,05,09,16,53,4.30
2007,05,09,16,54,4.60
2007,05,09,16,55,5.40
2007,05,09,16,56,5.70
2007,05,09,16,57,4.20
2007,05,09,16,58,5.90
2007,05,09,16,59,4.10
2007,05,09,17,00,4.90
2007,05,09,17,01,5.10
2007,05,09,17,02,5.00
2007,05,09,17,03,8.20
2007,05,09,17,04,5.70
2007,05,09,17,05,6.80
2007,05,09,17,06,2.50
2007,05,09,17,07,4.50
2007,05,09,17,08,4.40
2007,05,09,17,09,4.60
2007,05,09,17,10,4.40
2007,05,09,17,11,2.80
2007,05,09,17,12,4.20
2007,05,09,17,13,4.60
2007,05,09,17,14,5.30
2007,05,09,17,15,4.70
2007,05,09,17,16,4.10
2007,05,09,17,17,3.00
2007,05,09,17,18,3.50
2007,05,09,17,19,3.70
2007,05,09,17,20,1.30
2007,05,09,17,21,1.00
2007,05,09,17,22,0.90
2007,05,09,17,23,2.20
2007,05,09,17,24,0.40
2007,05,09,17,25,0.10
2007,05,09,17,26,2.60
2007,05,09,17,27,1.00
2007,05,09,17,28,0.90
2007,05,09,17,29,0.90
2007,05,09,17,30,2.10
2007,05,09,17,31,1.90
2007,05,09,17,32,2.10
2007,05,09,17,33,6.30
2007,05,09,17,34,5.70
2007,05,09,17,35,3.60
2007,05,09,17,36,3.50
2007,05,09,17,37,2.10
2007,05,09,17,38,2.90
2007,05,09,17,39,4.80
2007,05,09,17,40,3.90
2007,05,09,17,41,2.80
2007,05,09,17,42,1.40
2007,05,09,17,43,3.60
2007,05,09,17,44,4.30
2007,05,09,17,45,2.10
2007,05,09,17,46,1.90
2007,05,09,17,47,2.40
2007,05,09,17,48,2.60
2007,05,09,17,49,1.40
2007,05,09,17,50,3.60
2007,05,09,17,51,5.90
2007,05,09,17,52,6.70
2007,05,09,17,53,2.80
2007,05,09,17,54,3.30
2007,05,09,17,55,4.10
2007,05,09,17,56,1.60
2007,05,09,17,57,3.40
2007,05,09,17,58,4.30
2007,05,09,17,59,8.00
2007,05,09,18,00,10.40
2007,05,09,18,01,5.70
2007,05,09,18,02,1.10
2007,05,09,18,03,3.60
2007,05,09,18,04,9.60
2007,05,09,18,05,10.20